Regional Weather Roundup
Issued by NWS Sioux Falls, SD

Home | Current Version | Previous Version | Graphics & Text | Print | Product List | Glossary Off
Versions: 1 2 3 4 5 6 7 8 9 10 11 12 13 14 15 16 17 18 19 20 21 22 23 24 25 26 27 28 29 30 31 32 33 34 35 36 37 38 39 40 41 42 43 44 45 46 47 48 49 50

000
ASUS43 KFSD 031310
RWRFSD

WEATHER ROUNDUP FOR SE SOUTH DAKOTA/SW MINNESOTA/NW IOWA
NATIONAL WEATHER SERVICE SIOUX FALLS SD
800 AM CDT WED JUN 03 2015

NOTE: "FAIR" INDICATES FEW OR NO CLOUDS BELOW 12,000 FEET WITH NO
SIGNIFICANT WEATHER AND OR OBSTRUCTIONS TO VISIBILITY.


SDZ038>040-050-052>070-031400-
SOUTHEAST SOUTH DAKOTA

CITY           SKY/WX    TMP DP  RH WIND       PRES   REMARKS
BROOKINGS      CLOUDY    64  63  94 NW28G43   29.77F
CHAMBERLAIN    CLOUDY    64  59  85 N14G24    29.86R
HURON          LGT RAIN  63  62  97 NW7       29.83S FOG
MADISON        LGT RAIN  64  64 100 N24G32    29.80S
MITCHELL       LGT RAIN  67  62  84 N12       29.83R
SIOUX FALLS    CLOUDY    64  62  93 SW5       29.80S
WINNER         FAIR      62  54  74 NW7       29.90R
YANKTON        CLOUDY    64  61  88 SW8       29.84R
$$

MNZ071-072-080-081-089-090-097-098-031400-
SOUTHWEST MINNESOTA

CITY           SKY/WX    TMP DP  RH WIND       PRES   REMARKS
FAIRMONT       CLOUDY    63  54  72 SE14G21   29.83F
JACKSON        CLOUDY    63  57  82 SE8       29.81F
LUVERNE        CLOUDY    63  61  94 S6        29.81R FOG
MARSHALL       CLOUDY    64  57  77 S9        29.78F
MONTEVIDEO     CLOUDY    66  61  82 S8        29.79R
PIPESTONE      RAIN      63  59  88 NW7       29.80S
REDWOOD FALLS  CLOUDY    66  58  75 S14       29.80R
TRACY          CLOUDY    65  60  83 S8        29.79F
WINDOM         CLOUDY    64  57  77 S7        29.81F
WORTHINGTON    CLOUDY    63  55  77 S8        29.80F
$$

IAZ001>003-012>014-020>022-031-032-NEZ013-014-SDZ071-031400-
NORTHWEST IOWA

CITY           SKY/WX    TMP DP  RH WIND       PRES   REMARKS
CHEROKEE       CLOUDY    64  62  93 SW10G17   29.84R
DENISON        CLOUDY    64  64 100 SW3       29.83R
ESTHERVILLE    CLOUDY    61  58  90 SE17      29.80F
LE MARS        CLOUDY    66  63  88 SW8       29.85S
ORANGE CITY    CLOUDY    63  61  94 SW14      29.84S
SHELDON        CLOUDY    63  63 100 SW10G20   29.81R FOG
SIOUX CITY     CLOUDY    65  61  87 S3        29.85F
SPENCER        CLOUDY    63  60  90 SE13      29.82S
STORM LAKE     CLOUDY    64  61  88 SW13      29.85R
$$

ABBREVIATIONS USED IN REMARKS
   TC - TEMPERATURE IN CELSIUS
  WCI - WIND CHILL INDEX
   HX - HEAT INDEX
  VSB - VISIBILITY



USA.gov is the U.S. government's official web portal to all federal, state and local government web resources and services.